RH
56 50 40 55 69 42 33 33 28 33 36 39 41 48 84 100 99 80 97 86 64 66 81 85 55 61 66 47 34 30 35 38
49 42 41 40 48 55 38 38 59 62 46 30 32 31 49 48 97 100 100 100 100 100 92 78 84 66 74 71 71 69 52 52
30 48 64 34 32 42 41 58 84 100 89 48 32 29 34 54 57 61 98 100 100 83 51 61 64 61 63 73 84 74 71 67
53 68 84 76 46 44 50 35 61 61 41 38 43 42 58 66 45 44 43 63 75 86 61 53 51 52 52 80 92 74 71 66
58 92 98 94 99 83 69 51 31 39 34 50 36 40 62 65 63 53 47 59 77 90 100 85 65 62 58 77 75 69 67 66
73 84 100 92 100 100 98 81 62 40 30 30 35 32 41 55 66 97 60 40 44 45 60 70 94 86 83 90 96 81 67 72
86 64 95 100 100 100 100 96 74 63 44 46 54 30 26 54 85 99 82 82 47 56 57 63 79 95 84 68 99 99 72 73
100 93 77 95 100 100 100 100 88 71 62 61 54 55 36 36 63 71 77 81 54 59 66 65 76 91 77 58 67 100 98 71
100 100 91 54 91 100 100 100 100 99 87 80 62 60 35 30 51 62 100 100 94 49 80 70 60 59 88 80 56 62 85 99
100 100 98 100 69 95 100 100 100 97 87 79 75 65 55 45 36 58 100 100 100 100 100 98 52 34 57 97 96 88 90 58
100 100 96 100 100 100 100 100 100 98 98 87 90 86 70 42 45 66 88 90 100 100 100 82 71 36 29 34 98 100 100 94
100 100 87 64 100 88 99 71 87 100 100 97 99 82 77 56 46 57 98 100 100 100 100 100 75 86 54 24 23 83 100 100
100 100 79 98 100 100 100 100 100 100 100 100 100 98 89 70 61 55 70 100 100 100 95 100 99 81 47 28 20 29 66 95
100 100 100 96 100 100 100 98 100 100 100 100 100 85 76 64 88 68 90 100 99 89 86 61 64 69 58 33 24 27 61 99
100 100 100 90 84 94 100 100 100 96 100 100 97 89 75 56 78 100 92 100 100 100 83 66 73 72 68 32 45 78 100 100
100 100 100 100 100 74 100 100 100 100 100 100 92 90 78 54 41 92 97 100 100 85 67 69 66 81 69 53 44 49 98 100
62 75 100 100 100 100 100 100 100 100 100 88 82 77 69 78 58 92 100 100 100 97 65 51 68 64 74 84 93 55 49 70
95 95 80 100 100 100 100 100 100 100 100 86 75 69 65 95 77 80 94 100 97 97 87 74 70 95 99 71 76 88 88 56
92 100 100 100 100 100 100 100 83 74 73 95 82 58 59 92 100 100 100 94 92 91 98 90 99 100 100 99 86 74 73 74
71 66 75 99 92 100 100 100 100 98 88 80 75 71 54 63 80 100 100 100 95 100 100 100 100 100 100 100 83 74 76 74
Wind_Speed
42 43 39 37 39 39 37 31 37 35 34 39 42 39 38 40 44 45 50 51 50 51 53 51 48 48 47 48 51 52 52 54
45 38 47 49 43 41 38 35 36 35 34 35 34 33 41 45 49 52 53 51 52 52 55 51 48 49 48 47 47 48 48 49
46 50 47 40 42 44 43 38 30 33 41 45 45 45 44 42 48 51 58 58 57 59 60 55 51 47 47 49 51 48 47 48
58 58 57 50 46 44 41 42 41 41 46 41 42 46 45 44 47 45 53 55 58 59 58 57 54 51 50 44 50 52 49 47
55 61 60 55 53 50 48 46 43 54 50 45 46 44 47 46 46 49 49 49 55 60 60 60 59 53 52 50 50 49 50 51
52 58 63 57 57 55 58 50 51 45 46 45 45 50 46 56 54 50 49 52 50 57 62 59 63 59 53 51 51 52 51 50
55 54 58 62 57 62 63 52 52 55 53 55 45 49 53 52 54 57 55 56 53 47 47 50 56 61 62 55 49 52 53 53
69 62 52 58 61 67 64 53 53 61 58 52 52 50 51 56 57 63 62 56 51 49 48 47 49 55 61 61 55 54 56 58
78 70 61 58 61 64 69 67 56 56 52 51 54 55 56 55 56 60 54 54 54 55 58 58 53 53 59 63 64 65 64 61
79 75 58 51 55 58 64 68 64 62 59 57 56 53 55 57 62 62 61 58 57 60 62 62 61 58 58 67 66 70 69 72
70 69 61 52 64 65 67 67 66 66 66 66 57 53 54 62 62 64 63 65 63 64 63 62 58 61 56 63 71 71 70 75
67 66 62 56 61 63 61 69 75 73 66 63 57 56 54 61 66 63 62 59 59 63 58 57 58 58 58 57 67 77 77 73
62 66 73 61 61 72 68 69 72 70 71 64 57 52 54 56 60 63 64 63 63 58 55 52 55 54 61 54 59 64 71 78
63 70 72 67 66 66 73 74 76 72 72 63 59 63 59 55 57 64 60 59 55 61 59 57 59 61 55 54 54 62 62 69
67 65 65 71 73 72 73 74 78 79 74 69 64 62 62 60 58 61 58 58 61 61 62 60 63 59 58 55 58 59 57 65
71 65 67 69 75 72 78 84 84 81 80 73 65 59 58 63 66 68 65 63 63 66 65 64 62 58 61 60 58 56 61 63
78 75 73 69 69 74 78 82 80 78 79 81 79 70 68 64 66 70 70 69 70 69 72 71 68 65 70 60 61 63 59 65
64 65 70 71 74 77 80 82 85 85 84 84 80 75 71 65 68 72 72 72 72 74 74 70 71 72 72 65 64 62 68 69
63 70 71 68 73 78 83 90 95 97 91 86 86 83 72 67 65 70 78 78 76 78 74 75 75 77 74 68 67 63 63 60
69 71 80 82 78 77 81 82 87 89 93 94 89 81 75 73 70 74 81 84 83 76 77 81 83 78 76 75 67 65 69 66
Wind_Direction
308 301 298 302 308 310 308 298 306 291 288 281 274 268 259 263 261 263 260 266 270 269 269 275 279 271 271 270 268 266 263 267
308 312 306 300 295 298 301 299 297 288 289 292 284 288 279 268 256 259 260 266 264 268 271 267 271 272 272 270 270 266 265 265
298 301 301 304 311 299 296 295 280 270 282 287 284 281 286 274 265 262 259 259 263 265 270 270 269 268 269 270 268 269 267 264
292 292 296 294 296 298 302 296 285 286 291 291 283 282 279 276 280 272 269 263 266 267 270 269 270 269 269 268 267 265 266 264
293 292 291 294 285 291 289 292 291 299 288 288 283 283 274 268 274 268 274 274 265 263 267 271 271 270 271 269 268 265 264 263
289 291 291 292 284 292 288 285 286 290 291 293 293 290 282 268 269 275 272 269 273 272 269 270 267 266 264 264 268 267 268 266
283 288 287 288 285 291 285 277 285 287 288 292 290 297 291 277 269 273 275 276 274 273 271 270 270 265 263 259 259 266 264 263
279 281 283 276 279 283 283 270 274 281 282 281 290 294 297 292 274 271 275 274 269 273 272 277 274 270 270 266 257 261 262 262
280 273 278 290 274 275 277 272 270 272 272 278 289 292 294 298 277 271 272 274 270 275 282 282 280 276 268 269 268 262 259 259
281 276 277 280 280 269 273 268 271 270 273 278 285 290 292 290 296 271 271 271 271 280 278 278 279 281 268 264 262 263 261 260
277 272 276 273 272 273 273 267 268 270 268 273 278 286 289 292 295 273 268 271 273 273 277 278 280 279 273 266 257 254 257 261
268 270 278 267 266 269 266 266 267 264 266 272 277 284 286 291 293 274 265 263 266 269 276 278 280 283 284 272 264 255 254 254
261 264 267 270 271 266 265 267 266 260 271 268 278 278 280 285 285 274 264 259 262 267 272 274 282 286 288 281 270 269 259 261
263 259 260 264 267 270 268 270 271 268 269 271 271 275 281 281 266 266 258 258 265 266 272 278 284 287 291 283 277 276 266 262
259 257 262 265 264 265 269 268 264 266 267 269 275 276 277 279 269 259 254 260 264 269 272 278 289 291 288 285 274 275 268 267
255 257 262 264 263 268 266 264 263 267 267 269 273 271 273 275 279 256 260 264 271 272 273 276 279 290 292 281 272 273 265 264
252 249 253 259 260 259 261 262 266 269 271 274 272 273 276 265 266 254 258 266 270 278 276 273 284 284 295 284 275 270 274 266
255 253 243 254 256 259 262 265 267 268 271 271 272 273 272 257 259 256 265 267 272 275 279 280 282 289 291 291 280 270 269 273
262 255 250 249 262 262 264 265 267 267 268 270 270 271 267 253 259 262 263 266 269 274 277 280 284 288 290 290 284 274 272 277
270 264 258 251 243 253 260 264 268 270 269 268 268 270 265 260 258 262 263 267 270 273 275 279 284 285 286 288 286 273 277 279